Hourly Data Report for November 16, 2018

CARBERRY CS
MANITOBA
Current Station Operator: ECCC - MSC

49°54'20.900" N
99°21'26.800" W
383.50 m
5010547
71170
WZE

Download Data

Hourly Data (November 2018)
Hourly Data Report for November 16, 2018
TIME
LST
Temp Definition
°C
Dew Point Definition
°C
Rel Hum Definition
%
Precip. Amount Definition
mm

Wind Dir Definition
10's deg

Wind Spd Definition
km/h
Visibility Definition
km
Stn Press Definition
kPa
Hmdx Definition


Wind Chill Definition


Weather Definition


00:00 -7.3 -9.1 87 0.0 3 18   97.17   -14 LegendNANA
01:00 -8.2 -11.5 77 0.0 2 14   97.15   -14 LegendNANA
02:00 -8.8 -12.2 76 0.0 3 17   97.18   -16 LegendNANA
03:00 -9.3 -11.8 82 0.0 2 16   97.23   -16 LegendNANA
04:00 -9.8 -12.0 84 0.0 2 19   97.23   -17 LegendNANA
05:00 -10.1 -12.1 85 0.0 2 15   97.25   -17 LegendNANA
06:00 -10.8 -13.1 83 0.0 1 17   97.32   -18 LegendNANA
07:00 -11.2 -13.9 81 0.0 1 20   97.46   -19 LegendNANA
08:00 -11.3 -13.8 82 0.0 2 18   97.49   -19 LegendNANA
09:00 -11.3 -13.9 81 0.0 2 20   97.52   -20 LegendNANA
10:00 -10.8 -13.7 79 0.0 3 20   97.60   -19 LegendNANA
11:00 -10.6 -14.4 74 0.0 2 23   97.71   -19 LegendNANA
12:00 -10.2 -13.9 75 0.0 1 24   97.75   -19 LegendNANA
13:00 -9.5 -13.1 75 0.0 2 23   97.78   -18 LegendNANA
14:00 -10.1 -12.9 80 0.0 36 24   97.87   -19 LegendNANA
15:00 -10.1 -13.3 77 0.0 1 27   97.99   -19 LegendNANA
16:00 -11.3 -14.3 79 0.0 1 23   98.11   -20 LegendNANA
17:00 -12.0 -15.0 78 0.0 36 23   98.19   -21 LegendNANA
18:00 -13.3 -16.2 79 0.0 36 20   98.30   -22 LegendNANA
19:00 -13.8 -17.0 77 0.0 35 19   98.42   -22 LegendNANA
20:00 -14.3 -17.5 77 0.0 35 12   98.51   -21 LegendNANA
21:00 -15.0 -17.9 79 0.0 36 11   98.59   -22 LegendNANA
22:00 -17.2 -19.4 83 0.0 34 8   98.67   -23 LegendNANA
23:00 -18.3 -20.5 83 0.0 33 9   98.67   -25 LegendNANA

Notes on Data Quality.

Legend

  • E = Estimated
  • M = Missing
  • NA = Not Available*
  • [empty] = Indicates an unobserved value
Date modified: